| time (UTC) | temp F | wind direction | speed knots | gust knots | rain 1hr in | rain 24hr in | rain mn in | humidity % | barometer mb |
| 20260507064553 | 64 | 22 | 1.7 | 11.3 | 0.00 | 0.01 | 0.00 | 88 | 1014.4 |
| 20260507063049 | 65 | 51 | 3.5 | 9.6 | 0.00 | 0.01 | 0.00 | 89 | 1014.3 |
| 20260507061547 | 65 | 42 | 4.3 | 11.3 | 0.00 | 0.01 | 0.00 | 89 | 1014.6 |
| 20260507060047 | 65 | 24 | 2.6 | 7.8 | 0.00 | 0.01 | 0.00 | 89 | 1014.7 |
| 20260507054550 | 65 | 0 | 1.7 | 9.6 | 0.00 | 0.01 | 0.00 | 88 | 1014.5 |
| 20260507053055 | 66 | 25 | 3.5 | 13.9 | 0.00 | 0.01 | 0.00 | 88 | 1014.5 |
| 20260507051549 | 66 | 5 | 9.6 | 16.5 | 0.00 | 0.01 | 0.00 | 88 | 1014.5 |
| 20260507050047 | 67 | 9 | 9.6 | 14.8 | 0.00 | 0.01 | 0.00 | 87 | 1014.4 |
| 20260507044550 | 67 | 22 | 10.4 | 15.6 | 0.00 | 0.01 | 0.01 | 87 | 1014.4 |
| 20260507043050 | 67 | 14 | 7.0 | 14.8 | 0.00 | 0.01 | 0.01 | 86 | 1013.9 |
| 20260507041555 | 68 | 9 | 10.4 | 14.8 | 0.00 | 0.01 | 0.01 | 86 | 1014.6 |
| 20260507040058 | 68 | 9 | 6.1 | 12.2 | 0.00 | 0.01 | 0.01 | 85 | 1014.2 |
| 20260507034555 | 69 | 19 | 5.2 | 13.9 | 0.00 | 0.01 | 0.01 | 85 | 1013.6 |
| 20260507033047 | 69 | 24 | 7.0 | 13.9 | 0.00 | 0.01 | 0.01 | 84 | 1013.6 |
| 20260507031543 | 70 | 9 | 8.7 | 13.9 | 0.00 | 0.01 | 0.01 | 84 | 1013.0 |
| 20260507030053 | 70 | 22 | 7.8 | 13.0 | 0.00 | 0.01 | 0.01 | 84 | 1012.9 |
| 20260507024547 | 71 | 16 | 6.1 | 10.4 | 0.00 | 0.01 | 0.01 | 85 | 1012.6 |
| 20260507023047 | 71 | 30 | 7.8 | 13.0 | 0.00 | 0.01 | 0.01 | 85 | 1012.4 |
| 20260507021548 | 72 | 25 | 6.1 | 12.2 | 0.00 | 0.01 | 0.01 | 84 | 1012.2 |
| 20260507020053 | 72 | 360 | 7.0 | 12.2 | 0.00 | 0.01 | 0.01 | 85 | 1012.0 |
| 20260507014601 | 73 | 22 | 10.4 | 13.9 | 0.00 | 0.01 | 0.01 | 85 | 1011.5 |
| 20260507013047 | 73 | 13 | 7.8 | 13.0 | 0.00 | 0.01 | 0.01 | 84 | 1011.2 |
| 20260507011602 | 74 | 11 | 11.3 | 14.8 | 0.00 | 0.01 | 0.01 | 85 | 1011.3 |
| 20260507010046 | 74 | 5 | 11.3 | 14.8 | 0.00 | 0.01 | 0.01 | 85 | 1010.9 |
| 20260507004551 | 75 | 360 | 11.3 | 16.5 | 0.00 | 0.01 | 0.01 | 85 | 1010.6 |
| 20260507003047 | 75 | 5 | 11.3 | 14.8 | 0.00 | 0.01 | 0.01 | 85 | 1010.2 |
| 20260507001605 | 75 | 5 | 8.7 | 19.1 | 0.00 | 0.01 | 0.01 | 85 | 1009.9 |
| 20260507000056 | 76 | 5 | 16.5 | 23.5 | 0.00 | 0.01 | 0.01 | 84 | 1009.8 |
| 20260506234548 | 76 | 17 | 13.0 | 19.1 | 0.00 | 0.01 | 0.01 | 86 | 1009.7 |
| 20260506233046 | 76 | 350 | 16.5 | 20.9 | 0.00 | 0.01 | 0.01 | 86 | 1009.5 |
| 20260506231545 | 82 | 350 | 3.5 | 5.2 | 0.00 | 0.01 | 0.01 | 85 | 1009.4 |
| 20260506230054 | 83 | 0 | 0.0 | 0.0 | 0.00 | 0.01 | 0.01 | 82 | 1009.1 |
| 20260506224549 | 82 | 0 | 0.0 | 0.0 | 0.00 | 0.01 | 0.01 | 84 | 1008.8 |
| 20260506223048 | 83 | 336 | 1.7 | 3.5 | 0.00 | 0.01 | 0.01 | 83 | 1008.9 |
| 20260506221547 | 84 | 174 | 0.0 | 0.0 | 0.00 | 0.01 | 0.01 | 79 | 1008.8 |
| 20260506220058 | 85 | 0 | 0.9 | 2.6 | 0.00 | 0.01 | 0.01 | 78 | 1008.7 |
| 20260506214548 | 84 | 174 | 0.0 | 1.7 | 0.00 | 0.02 | 0.01 | 79 | 1008.7 |
| 20260506213041 | 84 | 0 | 0.0 | 1.7 | 0.00 | 0.02 | 0.01 | 79 | 1008.7 |
| 20260506211542 | 82 | 0 | 0.0 | 0.9 | 0.00 | 0.02 | 0.01 | 81 | 1009.1 |
| 20260506210057 | 81 | 0 | 0.0 | 1.7 | 0.00 | 0.02 | 0.01 | 84 | 1009.1 |
| 20260506204550 | 81 | 286 | 0.0 | 2.6 | 0.00 | 0.02 | 0.01 | 84 | 1009.3 |
| 20260506203137 | 82 | 300 | 1.7 | 3.5 | 0.00 | 0.02 | 0.01 | 82 | 1009.5 |
| 20260506201548 | 82 | 0 | 0.0 | 0.9 | 0.00 | 0.02 | 0.01 | 82 | 1009.6 |
| 20260506200052 | 81 | 0 | 0.0 | 2.6 | 0.00 | 0.02 | 0.01 | 82 | 1009.6 |
| 20260506194549 | 82 | 284 | 0.9 | 2.6 | 0.00 | 0.02 | 0.01 | 82 | 1009.7 |
| 20260506193048 | 83 | 0 | 0.0 | 1.7 | 0.00 | 0.02 | 0.01 | 80 | 1009.7 |
| 20260506191554 | 83 | 203 | 1.7 | 4.3 | 0.00 | 0.02 | 0.01 | 80 | 1009.8 |
| 20260506190057 | 83 | 194 | 4.3 | 6.1 | 0.00 | 0.02 | 0.01 | 80 | 1010.0 |
| 20260506184559 | 81 | 196 | 0.9 | 4.3 | 0.00 | 0.02 | 0.01 | 84 | 1010.1 |
| 20260506183058 | 79 | 159 | 2.6 | 5.2 | 0.00 | 0.02 | 0.01 | 86 | 1010.3 |
| 20260506181545 | 79 | 147 | 1.7 | 5.2 | 0.00 | 0.02 | 0.01 | 87 | 1010.9 |
| 20260506180048 | 79 | 0 | 0.0 | 2.6 | 0.00 | 0.02 | 0.01 | 86 | 1011.3 |
| 20260506174555 | 79 | 146 | 1.7 | 3.5 | 0.00 | 0.02 | 0.01 | 86 | 1011.6 |
| 20260506173054 | 79 | 180 | 0.0 | 2.6 | 0.00 | 0.02 | 0.01 | 87 | 1011.7 |
| 20260506171550 | 78 | 0 | 0.0 | 0.0 | 0.00 | 0.02 | 0.01 | 87 | 1011.9 |
| 20260506170053 | 78 | 0 | 0.0 | 3.5 | 0.00 | 0.02 | 0.01 | 87 | 1012.0 |
| 20260506164552 | 78 | 184 | 2.6 | 6.1 | 0.00 | 0.02 | 0.01 | 87 | 1011.8 |
| 20260506163104 | 78 | 175 | 5.2 | 7.8 | 0.01 | 0.02 | 0.01 | 87 | 1011.4 |
| 20260506161547 | 78 | 175 | 4.3 | 6.1 | 0.01 | 0.02 | 0.01 | 88 | 1011.3 |
| 20260506160053 | 77 | 174 | 5.2 | 7.0 | 0.01 | 0.02 | 0.01 | 90 | 1011.2 |
| 20260506154555 | 76 | 164 | 3.5 | 6.1 | 0.01 | 0.02 | 0.01 | 92 | 1011.3 |
| 20260506153109 | 76 | 157 | 3.5 | 5.2 | 0.00 | 0.01 | 0.00 | 92 | 1011.2 |
| 20260506151546 | 76 | 171 | 2.6 | 4.3 | 0.00 | 0.01 | 0.00 | 93 | 1011.3 |
| 20260506150048 | 75 | 156 | 3.5 | 5.2 | 0.00 | 0.01 | 0.00 | 93 | 1011.0 |
| 20260506144548 | 75 | 180 | 5.2 | 7.8 | 0.00 | 0.01 | 0.00 | 93 | 1011.0 |
| 20260506143045 | 75 | 179 | 5.2 | 7.0 | 0.00 | 0.01 | 0.00 | 93 | 1010.7 |
| 20260506141549 | 75 | 173 | 5.2 | 7.8 | 0.00 | 0.01 | 0.00 | 93 | 1010.7 |
| 20260506140051 | 75 | 173 | 5.2 | 7.0 | 0.00 | 0.01 | 0.00 | 93 | 1010.6 |
| 20260506134547 | 75 | 177 | 3.5 | 5.2 | 0.00 | 0.01 | 0.00 | 93 | 1010.7 |
| 20260506133052 | 75 | 172 | 4.3 | 6.1 | 0.00 | 0.01 | 0.00 | 93 | 1010.8 |
| 20260506131546 | 74 | 163 | 3.5 | 7.0 | 0.00 | 0.01 | 0.00 | 93 | 1010.9 |
| 20260506130047 | 74 | 157 | 2.6 | 6.1 | 0.00 | 0.01 | 0.00 | 93 | 1010.8 |
| 20260506124555 | 74 | 155 | 2.6 | 6.1 | 0.00 | 0.01 | 0.00 | 93 | 1010.7 |
| 20260506123050 | 74 | 166 | 4.3 | 5.2 | 0.00 | 0.01 | 0.00 | 93 | 1010.6 |
| 20260506121602 | 74 | 165 | 3.5 | 5.2 | 0.00 | 0.01 | 0.00 | 93 | 1010.5 |
| 20260506120048 | 74 | 182 | 3.5 | 5.2 | 0.00 | 0.01 | 0.00 | 93 | 1010.3 |
| 20260506114546 | 74 | 179 | 2.6 | 7.0 | 0.00 | 0.01 | 0.00 | 93 | 1010.0 |
| 20260506113050 | 74 | 193 | 3.5 | 5.2 | 0.00 | 0.01 | 0.00 | 93 | 1009.9 |
| 20260506111551 | 75 | 189 | 4.3 | 7.8 | 0.00 | 0.01 | 0.00 | 92 | 1009.8 |
| 20260506110056 | 75 | 192 | 5.2 | 7.0 | 0.00 | 0.01 | 0.00 | 92 | 1009.7 |
| 20260506104551 | 75 | 179 | 6.1 | 8.7 | 0.00 | 0.01 | 0.00 | 92 | 1009.6 |
| 20260506103051 | 75 | 177 | 6.1 | 9.6 | 0.00 | 0.01 | 0.00 | 92 | 1009.4 |
| 20260506101556 | 75 | 190 | 6.1 | 8.7 | 0.00 | 0.01 | 0.00 | 92 | 1009.6 |
| 20260506100055 | 75 | 180 | 5.2 | 7.8 | 0.00 | 0.01 | 0.00 | 92 | 1009.4 |
| 20260506094553 | 75 | 175 | 4.3 | 8.7 | 0.00 | 0.01 | 0.00 | 92 | 1009.3 |
| 20260506093051 | 75 | 182 | 7.8 | 9.6 | 0.00 | 0.01 | 0.00 | 91 | 1009.1 |
| 20260506091548 | 75 | 201 | 9.6 | 12.2 | 0.00 | 0.01 | 0.00 | 91 | 1009.0 |
| 20260506090100 | 75 | 196 | 8.7 | 12.2 | 0.00 | 0.01 | 0.00 | 91 | 1009.2 |
| 20260506084552 | 75 | 211 | 7.8 | 10.4 | 0.00 | 0.01 | 0.00 | 91 | 1009.2 |
| 20260506083046 | 75 | 206 | 7.8 | 10.4 | 0.00 | 0.01 | 0.00 | 91 | 1009.2 |
| 20260506081544 | 75 | 184 | 8.7 | 13.9 | 0.00 | 0.01 | 0.00 | 91 | 1009.1 |
| 20260506073048 | 75 | 176 | 8.7 | 11.3 | 0.00 | 0.01 | 0.00 | 91 | 1009.4 |
| 20260506071548 | 75 | 196 | 7.8 | 9.6 | 0.00 | 0.01 | 0.00 | 91 | 1009.6 |